Total_Precipitation_Accumulation
0.48 0.48 0.62 0.61 0.53 0.48 0.50 0.56 0.67 0.77 0.79 0.80 0.79 0.84 0.87 0.90 1.02 1.10 1.10 1.11 1.25 1.49 1.80 2.18 2.51 2.71 2.85 3.01 3.06 3.10 3.16 3.07 2.89 2.74 2.72 2.70 2.75 2.76 2.83 2.84 2.91 2.75 2.47
0.41 0.43 0.52 0.56 0.51 0.52 0.52 0.58 0.69 0.79 0.79 0.85 0.84 0.86 0.94 1.03 1.04 1.04 1.06 1.13 1.32 1.54 1.74 1.97 2.20 2.53 2.66 2.72 2.75 2.96 3.10 2.93 3.07 3.34 3.47 3.23 3.05 2.92 3.14 3.07 3.10 3.11 2.55
0.35 0.43 0.44 0.59 0.55 0.55 0.55 0.59 0.67 0.79 0.84 0.94 0.95 0.94 1.00 1.08 1.04 0.98 1.08 1.23 1.48 1.73 1.88 2.02 2.20 2.55 2.76 2.70 2.78 3.03 3.24 3.26 3.40 3.83 4.17 3.57 3.37 3.28 3.03 2.85 2.72 2.58 2.27
0.54 0.52 0.47 0.61 0.62 0.55 0.55 0.62 0.72 0.83 0.90 1.05 1.04 0.91 0.97 1.04 1.06 1.03 1.10 1.25 1.53 1.85 2.10 2.11 2.17 2.41 2.46 2.46 2.70 3.03 3.24 3.33 3.61 3.87 4.01 3.82 3.75 3.81 3.34 2.91 2.66 2.53 2.24
0.72 0.62 0.59 0.69 0.70 0.67 0.65 0.67 0.75 0.89 0.97 1.08 0.98 1.00 1.07 1.13 1.14 1.14 1.13 1.21 1.46 1.91 2.19 2.13 2.15 2.18 2.23 2.35 2.55 2.76 3.06 3.36 3.64 3.71 4.02 4.39 4.55 4.35 3.49 2.90 2.71 2.68 2.39
0.67 0.59 0.56 0.66 0.68 0.70 0.66 0.67 0.82 0.92 1.02 1.10 1.14 1.15 1.18 1.32 1.35 1.25 1.26 1.39 1.54 1.88 2.17 2.19 2.23 2.21 2.19 2.31 2.39 2.50 2.73 3.21 3.41 3.43 4.10 4.29 4.11 4.27 3.68 3.14 2.90 2.67 2.36
0.68 0.62 0.55 0.61 0.69 0.69 0.72 0.75 0.96 1.11 1.19 1.28 1.30 1.27 1.30 1.41 1.45 1.37 1.43 1.56 1.73 1.87 2.08 2.15 2.11 2.10 2.05 2.19 2.22 2.33 2.43 2.82 2.89 3.59 3.79 3.79 3.90 4.23 3.96 3.51 3.19 2.79 2.44
0.85 0.75 0.65 0.65 0.79 0.89 0.90 0.93 1.12 1.18 1.27 1.35 1.41 1.37 1.33 1.34 1.31 1.31 1.44 1.57 1.78 1.93 1.99 1.95 1.87 1.87 1.92 2.01 2.12 2.29 2.35 2.26 2.28 2.89 3.28 3.35 3.40 3.86 4.08 3.62 3.15 2.89 2.66
0.93 0.77 0.73 0.71 0.90 1.13 1.17 1.12 1.16 1.15 1.27 1.39 1.50 1.51 1.36 1.29 1.21 1.25 1.34 1.44 1.64 1.71 1.66 1.72 1.73 1.65 1.67 1.85 2.16 2.16 2.17 2.31 2.25 2.70 2.88 3.10 2.95 3.49 3.99 3.76 3.16 2.87 2.79
1.19 1.02 0.99 0.98 1.06 1.14 1.18 1.22 1.20 1.19 1.31 1.43 1.49 1.52 1.45 1.40 1.32 1.36 1.30 1.42 1.54 1.65 1.72 1.78 1.74 1.63 1.65 1.81 2.12 2.23 2.22 2.20 2.11 2.43 3.24 3.10 2.83 3.65 4.03 3.84 3.42 3.14 2.96
1.42 1.46 1.38 1.30 1.31 1.29 1.25 1.27 1.40 1.41 1.47 1.48 1.55 1.52 1.49 1.55 1.61 1.60 1.44 1.57 1.69 1.83 2.01 2.02 1.94 1.89 1.86 1.95 2.13 2.14 2.10 1.79 2.05 2.70 3.33 3.19 3.15 3.83 4.07 3.90 3.66 3.47 3.23
1.74 1.78 1.76 1.76 1.72 1.67 1.59 1.78 1.90 1.68 1.62 1.58 1.76 1.61 1.62 1.92 2.01 1.79 1.97 2.16 2.34 2.37 2.34 2.23 2.14 2.05 1.95 1.95 2.03 1.95 1.72 1.77 2.34 2.93 3.02 2.89 3.42 4.06 4.28 4.01 3.78 3.67 3.50
2.11 1.84 1.77 2.05 2.15 2.21 2.34 2.24 2.25 2.23 2.20 2.11 2.24 2.11 2.12 2.28 2.20 2.31 2.51 2.45 2.45 2.53 2.42 2.45 2.24 1.91 1.79 1.95 1.98 1.88 1.87 1.93 2.32 2.78 2.97 2.98 3.57 4.21 4.50 4.33 3.99 3.90 3.90
2.39 2.19 1.97 2.04 2.14 2.34 2.54 2.52 2.48 2.39 2.34 2.28 2.40 2.24 2.41 2.62 2.74 2.83 3.00 2.81 2.75 2.70 2.80 2.75 2.58 2.22 1.96 1.90 1.84 1.88 2.03 2.06 2.23 2.63 2.85 2.66 3.13 3.89 4.48 4.58 4.32 4.19 4.14
2.77 2.64 2.47 2.24 2.22 2.42 2.72 2.86 2.81 2.87 2.71 2.75 2.88 2.68 2.65 2.73 2.82 3.17 3.26 3.53 3.16 3.05 3.19 3.12 2.88 2.72 2.44 2.22 2.11 2.09 2.20 2.19 2.23 2.50 2.66 2.60 2.89 3.51 4.17 4.52 4.58 4.53 4.46
3.41 3.07 2.81 2.66 2.57 2.56 2.70 3.03 3.15 2.99 3.01 3.02 3.15 3.06 3.00 3.04 3.17 3.52 3.70 3.84 3.60 3.60 3.82 3.83 3.58 3.36 3.07 2.95 2.68 2.65 2.59 2.60 2.83 2.85 2.85 2.77 2.73 2.99 3.71 4.28 4.64 4.87 4.84
3.66 3.49 3.23 3.12 3.16 2.96 2.88 3.18 3.31 3.20 3.12 3.16 3.37 3.44 3.31 3.39 3.72 3.85 4.21 4.21 4.00 3.97 4.02 4.02 4.25 4.16 3.63 3.36 3.25 3.17 3.06 2.94 3.16 3.31 3.40 3.23 2.95 2.97 3.27 3.84 4.22 4.44 4.62
3.89 3.69 3.54 3.18 3.18 3.39 3.39 3.68 3.62 3.69 3.83 3.78 3.81 4.00 3.91 3.95 4.06 4.12 4.17 4.27 4.21 4.17 4.51 4.72 4.65 4.58 4.33 3.97 3.83 3.54 3.33 3.33 3.15 3.17 3.30 3.23 3.22 2.93 2.87 3.06 3.44 3.62 3.99
3.36 3.48 3.56 3.48 3.44 3.49 3.68 4.11 4.27 4.49 4.65 4.80 4.81 5.01 4.89 4.65 4.55 4.64 4.63 4.80 4.65 4.71 4.75 4.60 5.04 5.03 4.91 4.45 3.92 3.70 3.35 3.32 3.24 2.93 2.96 3.03 3.05 2.93 2.89 2.84 3.13 3.36 3.65
3.36 3.49 3.58 3.77 3.99 3.97 4.05 4.37 4.85 5.08 5.18 5.50 5.53 5.53 5.56 5.53 5.39 5.42 5.39 5.44 5.28 5.15 5.10 5.10 5.21 4.96 4.78 4.53 3.93 3.62 3.26 2.90 2.84 2.84 2.63 2.82 2.74 2.53 2.74 2.95 3.08 2.94 3.35
3.49 3.70 3.61 3.80 4.23 4.51 4.91 4.96 5.19 5.65 5.98 6.07 6.10 6.06 5.96 5.89 5.93 5.81 5.65 5.83 5.63 5.37 5.16 5.14 5.12 5.00 4.62 4.58 4.60 4.09 3.34 2.87 2.66 2.48 2.53 2.64 2.53 2.50 2.81 2.91 2.87 2.80 2.78
3.48 3.72 3.85 4.00 4.51 5.00 5.57 6.11 6.51 6.94 6.97 7.08 7.00 6.87 6.50 6.31 6.25 6.07 6.11 5.92 5.72 5.61 5.33 5.13 5.11 5.01 4.62 4.67 4.71 4.71 3.87 3.27 2.59 2.02 2.16 2.24 2.26 2.35 2.50 2.53 2.53 2.62 2.64
3.53 3.77 3.93 4.28 4.90 5.73 6.37 6.91 7.45 7.80 7.55 7.32 6.99 6.81 6.66 6.64 6.59 6.45 6.39 6.09 5.88 5.63 5.29 5.03 4.91 4.85 4.72 4.71 4.57 4.70 4.13 3.41 2.83 2.27 1.95 1.90 2.06 2.27 2.29 2.40 2.33 2.35 2.44
3.57 3.70 3.91 4.58 5.28 5.94 6.61 7.28 7.84 8.10 8.11 7.89 7.30 6.82 6.43 6.17 5.89 5.79 5.82 5.69 5.52 5.21 4.97 4.64 4.54 4.50 4.68 4.48 4.43 4.21 3.90 3.56 3.34 2.85 2.33 2.10 2.12 2.11 2.14 2.15 2.17 2.27 2.34
3.27 3.67 3.97 4.66 5.43 6.11 6.91 7.68 8.09 8.26 8.24 7.89 7.14 6.42 5.87 5.46 5.07 4.85 4.89 4.83 4.67 4.47 4.31 4.25 4.32 4.22 4.16 3.99 3.91 3.94 3.98 3.89 3.47 3.10 2.72 2.46 2.36 2.20 2.18 2.18 2.31 2.35 2.33
3.08 3.54 4.07 4.44 5.12 5.96 6.58 7.11 7.28 7.43 7.39 7.00 6.55 6.03 5.62 5.08 4.56 4.17 4.03 3.98 3.80 3.64 3.66 3.68 3.78 3.73 3.77 3.80 3.72 3.60 3.63 3.64 3.39 3.29 2.95 2.65 2.60 2.38 2.26 2.17 2.14 2.22 2.30